Location: Ellerstadt
(49.4644°N, 8.2615°E)
Time: 02:39:22
(UTC+00:00)

ISS - Pass Details

Date: 21 May 2021
Orbit: 417 x 422 km, 51.6° (Epoch: 15 June)

Event Time Altitude Azimuth Distance (km) Brightness Sun altitude
Rises 20:06:34 0° 264° (W) 2,362 0.7 -7.7°
Reaches altitude 10° 20:08:41 10° 267° (W) 1,500 -0.3 -7.9°
Maximum altitude 20:12:02 65° 350° (N) 467 -3.3 -8.3°
Drops below altitude 10° 20:15:23 10° 73° (ENE) 1,506 -1.2 -8.7°
Sets 20:17:30 0° 77° (ENE) 2,372 -0.2 -8.9°
